www.pogodaiklimat.ru

Погода и климат >> Архив погоды >> Россия >> город Санкт-Петербург >> Лисий Нос


ПОГОДА в Лисьем Носу

  • Прогноз погоды в Лисьем Носу
  • Монитор погоды в Лисьем Носу

АРХИВ ПОГОДЫ в Лисьем Носу

Время (UTC), дата Ветер
(напр.,м/с)
 
Видим.   Явления Облачность Т
(С)
Тd
(С)
f
(%)
Тe
(С)
Тes
(С)
Комфортность P
(гПа)
Po
(гПа)
Тmin
(С)
Tmax
(С)
R
(мм)
R24
(мм)
S
(см)
00 13.06 В 2 н/о н/о +10.4 +1.1 52 +9 +9 1027.9 1027.0
03 13.06 В 2 н/о н/о +10.6 +2.2 56 +10 +10 1027.5 1026.5 +9.1
06 13.06 ЮВ 2 20 км 4/0
[Ac trans Ci fib]
+13.8 +4.0 52 +13 +19 1026.8 1025.9 +9.1
09 13.06 ЮВ 2 н/о н/о +17.1 +6.1 48 +17 +17 1026.1 1025.2
12 13.06 Ю 2 н/о н/о +19.0 +6.4 44 +20 +20 1024.1 1023.2
15 13.06 ЮВ 2 н/о н/о +19.6 +6.7 43 +21 +21 комфорт 1022.1 1021.2
18 13.06 ЮВ 1 20 км 9/3 600 м
[Cu Sc Ac trans Ci fib]
+17.8 +8.9 56 +19 +19 1020.1 1019.2 +19.9
21 13.06 ЮВ 2 н/о н/о +15.1 +8.9 66 +15 +15 1018.8 1017.9
00 14.06 В 1 н/о н/о +13.6 +9.9 78 +14 +14 1017.1 1016.2
03 14.06 В 1 н/о н/о +14.0 +9.7 75 +14 +14 1015.5 1014.6 +13.6
06 14.06 В 1 20 км 9/3 600 м
[Cb calv Ac lent]
+15.5 +10.4 72 +16 +18 1016.0 1015.1 +13.6
09 14.06 В 2 н/о н/о +17.1 +11.5 70 +17 +17 1016.4 1015.5
12 14.06 В 1
{15}
н/о н/о +16.3 +10.9 70 +17 +17 1017.3 1016.4
15 14.06 В 1 н/о н/о +16.7 +11.2 70 +18 +18 1016.5 1015.6
18 14.06 штиль 0 10 км 10/0
[As op]
+15.8 +10.6 71 +16 +16 1016.0 1015.1 +17.7
21 14.06 Ю 4 н/о н/о +15.1 +13.6 91 +14 +14 1015.9 1015.0
00 15.06 З 4 н/о н/о +13.2 +12.4 95 +11 +11 1015.0 1014.1
03 15.06 З 4 н/о н/о +13.5 +13.1 97 +12 +12 1014.5 1013.6 +13.2
06 15.06 З 6-10
{10}
4000 м слаб. дождь 10/10 200 м
[Frnb Ns]
+13.5 +12.9 96 +11 +11 1014.8 1013.9 +13.2 0.7
09 15.06 З 5
{12}
н/о н/о +13.8 +12.8 94 +12 +12 1015.2 1014.3
12 15.06 З 4
{10}
н/о н/о +14.8 +12.6 87 +14 +14 1015.9 1015.0
15 15.06 З 4 н/о н/о +14.5 +12.7 89 +13 +13 1015.9 1015.0
18 15.06 З 2 10 км 10/10 1000 м
[Sc]
+14.7 +13.1 90 +14 +14 1016.0 1015.1 +15.0 0.5
21 15.06 З 1 н/о н/о +12.9 +12.4 97 +13 +13 1015.7 1014.8
00 16.06 З 1 н/о н/о +14.2 +13.1 93 +14 +14 1015.7 1014.8
03 16.06 З 1 н/о н/о +15.0 +13.5 91 +15 +15 1015.5 1014.6 +12.9
06 16.06 З 1 10 км 8/3 1000 м
[Cu med, cong Ac trans]
+16.3 +13.9 86 +17 +20 1015.9 1015.0 +12.9
09 16.06 СЗ 2 н/о н/о +18.2 +13.4 74 +19 +19 1016.0 1015.1
12 16.06 СЗ 2 н/о н/о +18.8 +12.5 67 +20 +20 1014.9 1014.0
15 16.06 ЮЗ 1 н/о н/о +18.7 +12.8 69 +21 +21 комфорт 1014.2 1013.3
18 16.06 З 2 20 км ясно +16.9 +12.9 77 +17 +17 1013.6 1012.7 +19.3
21 16.06 штиль 0 н/о н/о +13.2 +12.7 97 +13 +13 1013.0 1012.1
00 17.06 штиль 0 н/о н/о +12.5 +12.2 98 +12 +12 1012.7 1011.8
03 17.06 З 2 н/о н/о +15.2 +11.5 79 +15 +15 1012.5 1011.6 +12.2
06 17.06 З 1 20 км 3/0
[Ci sp]
+18.8 +13.2 70 +21 +29 комфорт 1012.1 1011.3 +12.2
09 17.06 СЗ 2 н/о н/о +19.4 +14.6 74 +22 +22 комфорт 1012.3 1011.4
12 17.06 З 3 н/о н/о +20.2 +14.4 69 +23 +23 комфорт 1012.2 1011.3
15 17.06 З 4 н/о н/о +19.8 +12.5 63 +21 +21 комфорт 1012.1 1011.2
18 17.06 З 4 20 км 9/0
[Cc]
+17.5 +14.4 82 +17 +17 1011.2 1010.3 +21.2
21 17.06 З 7-11
{11}
н/о н/о +17.2 +12.4 73 +16 +16 1011.9 1011.0
00 18.06 З 6-10
{11}
н/о н/о +16.2 +11.3 73 +15 +15 1012.0 1011.1
03 18.06 З 4
{11}
н/о н/о +15.5 +11.1 75 +15 +15 1012.5 1011.6 +15.3
06 18.06 З 3 20 км ясно +17.0 +12.7 76 +17 +23 1013.2 1012.3 +15.3
09 18.06 З 2 н/о н/о +19.5 +12.8 65 +22 +22 комфорт 1013.7 1012.8
12 18.06 З 5 н/о н/о +19.5 +13.6 69 +21 +21 комфорт 1014.1 1013.2
15 18.06 З 5
{13}
н/о н/о +18.8 +12.9 69 +19 +19 1014.6 1013.7
18 18.06 З 5
{11}
20 км ясно +17.3 +11.8 70 +17 +17 1014.4 1013.5 +19.9
21 18.06 З 3 н/о н/о +15.7 +11.2 75 +15 +15 1014.9 1014.0
00 19.06 З 3 н/о н/о +15.6 +12.4 81 +15 +15 1015.3 1014.4
03 19.06 З 3 н/о н/о +15.6 +13.0 85 +15 +15 1015.7 1014.8 +15.1
06 19.06 З 2 20 км 8/0
[Ci fib]
+18.3 +13.9 76 +19 +25 1016.2 1015.3 +15.1

 

Местоположение метеостанции Лисий Нос (город Санкт-Петербург, Россия): широта 60.02 долгота 29.98 высота над уровнем моря 9 м.

В архиве по умолчанию представлена погода в Лисьем Носу за последнюю неделю. Архивные данные за месяц целиком и за предыдущие месяцы, начиная с января 2011 года, Вы можете получить, выбрав интересующий диапазон дат из раскрывающегося списка и нажав кнопку "Ввод!".


*Определитесь, кто Вы:
робот инопланетянин человек

Внимание! Время в таблицах - всемирное. Для получения местного времени необходимо прибавить поправку, которая равна 3 ч.

Смотрите также архив погоды в соседних городах и на ближайших метеорологических станциях:

Погода в Кронштадте (город Санкт-Петербург, Россия) (13 км)
Погода в Ломоносове (город Санкт-Петербург, Россия) (16 км)
Погода в Санкт-Петербурге (город Санкт-Петербург, Россия) (19 км)
Погода в Рощино (Ленинградская область, Россия) (32 км)
Погода в Воейково (город Санкт-Петербург, Россия) (41 км)
Погода в Шепелево (Ленинградская область, Россия) (43 км)
Погода в Сосновом Бору (Ленинградская область, Россия) (50 км)
Погода в Шлиссельбурге (Ленинградская область, Россия) (58 км)
Погода в Озерках (Ленинградская область, Россия) (58 км)
Погода в Сосново (Ленинградская область, Россия) (62 км)

Пояснения к столбцам:

Ветер - указаны скорость ветра в м/с - средняя за 10 мин, порывы в срок и между сроками (в фигурных скобках) и направление, откуда дует ветер: С - северный, СВ - северо-восточный, В - восточный, ЮВ - юго-восточный, Ю - южный, ЮЗ - юго-западный, З - западный, СЗ - северо-западный.
Видимость - горизонтальная дальность видимости в метрах или километрах. При видимости от 1 до 10 км при отсутствии осадков обычно наблюдается дымка, при ухудшении видимости до 1 км и менее - туман. В сухую погоду видимость может ухудшаться дымом, пылью или мглою.
Явления - указаны атмосферные явления, наблюдавшиеся в срок или в последний час перед сроком; фигурными скобками обозначены явления, наблюдавшиеся между сроками (за 1-3 часа до срока); квадратными скобками обозначены град или гололедные отложения с указанием их диаметра в мм.
Облачность - указаны через наклонную черту общая и нижняя облачность в баллах и высота нижней границы облаков в метрах; квадратными скобками обозначены формы облаков: Ci - перистые, Cs - перисто-слоистые, Cc - перисто-кучевые, Ac - высококучевые, As - высокослоистые, Sc - слоисто-кучевые, Ns - слоисто-дождевые, Cu - кучевые, Cb - кучево-дождевые. Подробнее классификацию облаков см. в Атласе облаков (PDF).
T - Температура воздуха - температура, измеренная на высоте 2 м над землей.
Td - Температура точки росы - температура, при понижении до которой содержащийся в воздухе водяной пар достигнет насыщения.
f - Относительная влажность воздуха - влажноcть воздуха, измеренная на высоте 2 м над землей.
Te - Эффективная температура - температура, которую ощущает одетый по сезону человек в тени. Характеристика душности погоды. При расчете учитывается влияние влажности воздуха и скорости ветра на теплоощущения человека.
Tes - Эффективная температура на солнце - температура, которую ощущает человек, с поправкой на солнечный нагрев. Характеристика знойности погоды. Зависит от высоты солнца над горизонтом, облачности и скорости ветра. Ночью, в пасмурную погоду, а также при ветре 12 м/с и более поправка равна нулю.
P - Атмосферное давление - приведенное к уровню моря атмосферное давление.
Po - Атмосферное давление - измеренное на уровне метеостанции атмосферное давление.
Tmin - Минимальная температура - минимум температуры воздуха на высоте 2 м над землей.
Tmax - Максимальная температура - максимум температуры воздуха на высоте 2 м над землей.
R - Количество осадков - Количество выпавших осадков за период времени, мм. При наведении курсора мыши на число - период времени, за который выпало указанное количество осадков.
R24 - Количество осадков - Количество выпавших осадков за 24 часа, мм.
S - Снежный покров - Высота снежного покрова, см. При наведении курсора мыши на число - состояние снежного покрова и степень покрытия местности в баллах.